Location: Sebastopol
(38.4021°N, 122.8239°W)
Time: 14:08:00
(UTC+00:00)

CZ-4B R/B - Pass Details

Date: 29 October 2020
Orbit: 489 x 649 km, 97.9° (Epoch: 30 November)

Event Time Altitude Azimuth Distance (km) Brightness Sun altitude
Rises 14:00:38 0° 1° (N) 2,772 6.3 -7.4°
Reaches altitude 10° 14:02:54 10° 351° (N) 1,898 5.4 -7.0°
Maximum altitude 14:06:32 31° 289° (WNW) 1,054 3.7 -6.3°
Drops below altitude 10° 14:10:19 10° 227° (SW) 1,968 5.3 -5.5°
Sets 14:12:43 0° 217° (SW) 2,892 6.3 -5.1°
